[[{"header":{"parameterUnit":"m.s-1","parameterCategory":1,"la1":30.2991,"la2":30.254,"lo1":-89.0895,"lo2":-89.0444,"dy":0.0017,"dx":0.0017,"nx":28,"ny":28,"refTime":"2024-12-31T09:00:00:Z","depth":0,"parameterNumber":2,"parameterNumberName":"U-component_of_WINDS"},"data":[0,0,0,0,0,0,0,0,0,0,0,0,0,0,0,0,0,0,0,0,0,0,0,0,0,0,0,0,0,0,0,0,0,0,0,0,0,0,0,0,0,0,0,0,0,0,0,0,0,0,0,0,0,0,0,0,0,0,-0.9027,-0.9028,0,-0.9054,-0.9054,-0.9054,-0.9012,-0.901,-0.9009,-0.9008,-0.9036,-0.9039,-0.9041,0,0,0,0,0,0,0,0,0,0,0,0,0,-0.894,-0.8942,-0.9027,-0.9028,-0.9028,-0.9054,-0.9054,-0.9054,-0.9012,-0.901,-0.9009,-0.9007,-0.9036,-0.9038,-0.9041,0,0,0,0,0,0,0,0,0,0,0,0,0,-0.8974,-0.8943,-0.9027,-0.901,-0.9008,-0.9054,-0.9054,-0.9055,-0.9012,-0.901,-0.9008,-0.9006,-0.9035,-0.9038,-0.9041,-0.9105,0,0,-0.9051,-0.9052,0,0,0,0,0,0,0,0,-0.8972,-0.8977,-0.9012,-0.9011,-0.901,-0.9027,-0.9034,-0.9072,-0.9013,-0.9011,-0.9007,-0.9005,-0.9035,-0.9038,-0.9048,-0.9106,-0.9108,-0.9051,-0.9053,-0.9055,-0.9056,0,0,0,0,0,0,0,-0.897,-0.8976,-0.9038,-0.9013,-0.9011,-0.9001,-0.9003,-0.9041,-0.9035,-0.9011,-0.9008,-0.9012,-0.9034,-0.9045,-0.9049,-0.9108,-0.9051,-0.9054,-0.9056,-0.9057,-0.9219,-0.9221,0,0,0,0,0,0,-0.8969,-0.8974,-0.9037,-0.9039,-0.8985,-0.9004,-0.9007,-0.9024,-0.9035,-0.9034,-0.9013,-0.901,-0.9041,-0.9045,-0.9049,-0.9125,-0.9055,-0.9058,-0.9059,-0.9217,-0.922,-0.9222,0,0,0,0,0,0,-0.8968,-0.8975,-0.9036,-0.9005,-0.9012,-0.9008,-0.9028,-0.9026,-0.9036,-0.9037,-0.9035,-0.9026,-0.9039,-0.9045,-0.9091,-0.9125,-0.9059,-0.9062,-0.9214,-0.9218,-0.9221,-0.9276,0,0,0,0,0,0,-0.8965,-0.8975,-0.8999,-0.9006,-0.9014,-0.9077,-0.903,-0.9028,-0.9042,-0.9037,-0.9048,-0.9047,-0.9038,-0.9087,-0.9094,-0.9128,-0.9064,-0.9211,-0.9216,-0.922,-0.9271,-0.9281,-0.9289,0,0,0,0,0,-0.8962,-0.9014,-0.9001,-0.9008,-0.9044,-0.9079,-0.9084,-0.9071,-0.9045,-0.9069,-0.9069,-0.9047,-0.912,-0.9092,-0.91,-0.9135,-0.9209,-0.9214,-0.9219,-0.9267,-0.9279,-0.9289,0,0,0,0,0,0,-0.9012,-0.9015,-0.9,-0.9055,-0.9067,-0.9072,-0.9103,-0.9085,-0.9105,-0.91,-0.9084,-0.9086,-0.9136,-0.914,-0.9109,-0.9197,-0.916,-0.9167,-0.9193,-0.9204,-0.9213,-0.9212,-0.9067,0,0,0,0,0,-0.9029,-0.9057,-0.9058,-0.9107,-0.9114,-0.9107,-0.9122,-0.9111,-0.9123,-0.9128,-0.9131,-0.9144,-0.917,-0.9187,-0.9211,-0.9271,-0.9272,-0.9299,-0.9308,-0.9316,-0.9322,-0.9354,-0.9366,-0.924,-0.924,-0.924,0,0,-0.9066,-0.9071,-0.909,-0.9117,-0.9125,-0.9155,-0.9112,-0.9145,-0.9167,-0.9133,-0.9177,-0.918,-0.9193,-0.9246,-0.927,-0.9251,-0.9357,-0.9322,-0.9328,-0.9331,-0.9361,-0.9373,-0.9383,-0.9243,-0.9243,-0.9242,0,0,-0.9147,-0.9154,-0.9195,-0.9203,-0.9216,-0.9211,-0.922,-0.9228,-0.9228,-0.9271,-0.9247,-0.9272,-0.9317,-0.9327,-0.9338,-0.9421,-0.9402,-0.9429,-0.9478,-0.9508,-0.9518,-0.9527,-0.9557,-0.9568,-0.9436,-0.9436,-0.9436,0,-0.9191,-0.9234,-0.9219,-0.9253,-0.9266,-0.9236,-0.9278,-0.9287,-0.9306,-0.9316,-0.9294,-0.9349,-0.9356,-0.9411,-0.9431,-0.9441,-0.9452,-0.9429,-0.9518,-0.9527,-0.9535,-0.9563,-0.9574,-0.9439,-0.9439,-0.9439,-0.9438,0,-0.9288,-0.9318,-0.935,-0.9368,-0.9385,-0.9423,-0.9413,-0.9431,-0.9418,-0.9416,-0.946,-0.9467,-0.9491,-0.9503,-0.9491,-0.9556,-0.9544,-0.9521,-0.9483,-0.955,-0.9576,-0.9587,-0.9444,-0.9443,-0.9442,-0.9441,0,0,-0.9403,-0.9411,-0.9423,-0.9431,-0.9441,-0.9465,-0.9501,-0.9523,-0.954,-0.9554,-0.9584,-0.9621,-0.9599,-0.9612,-0.9601,-0.9628,-0.9693,-0.9601,-0.9601,-0.9618,-0.9765,-0.9783,-0.9795,-0.968,-0.9682,-0.9683,-0.9764,0,-0.9484,-0.9546,-0.9532,-0.9594,-0.9621,-0.9592,-0.9624,-0.9634,-0.9632,-0.9655,-0.9652,-0.9679,-0.9648,-0.9655,-0.9681,-0.968,-0.9723,-0.9674,-0.9708,-0.9709,-0.9706,-0.9809,-0.9828,-0.9904,-0.9774,-0.9775,-0.9777,0,-0.9587,-0.9604,-0.9668,-0.9673,-0.9684,-0.9713,-0.9732,-0.9754,-0.9765,-0.9761,-0.9774,-0.9758,-0.9794,-0.9755,-0.9803,-0.9771,-0.9783,-0.9785,-0.9788,-0.9791,-0.9748,-0.9816,-0.9928,-0.9939,-0.9793,-0.9791,-0.979,0,-0.9665,-0.9704,-0.9747,-0.9755,-0.9762,-0.9782,-0.9786,-0.9794,-0.9808,-0.9825,-0.9834,-0.9855,-0.9867,-0.9883,-0.9872,-0.9845,-0.9923,-0.9883,-0.9921,-0.9922,-0.994,-0.9939,-1.0056,-0.9948,-0.9948,-0.9947,-0.9947,0,-0.9758,-0.9798,-0.9782,-0.9809,-0.9853,-0.9836,-0.988,-0.9881,-0.9888,-0.9914,-0.989,-0.9915,-0.9899,-0.9923,-0.9915,-0.9956,-0.9962,-0.996,-0.9957,-0.9962,-0.9963,-0.9971,-0.9966,-0.995,-0.995,-0.9949,-0.9949,0,-0.9853,-0.9843,-0.9888,-0.9891,-0.9892,-0.9925,-0.9927,-0.9951,-0.9947,-0.998,-0.9987,-0.998,-1.0007,-0.9997,-1.0026,-1.002,-1.0073,-1.0064,-1.007,-1.0067,-1.0106,-1.0103,-1.0233,-1.025,-1.013,-1.0131,-1.0132,0,-0.9913,-0.9943,-0.9948,-0.9963,-0.9969,-0.9994,-1.0008,-0.9992,-1.0008,-1.0021,-1.0044,-1.0068,-1.0087,-1.013,-1.0128,-1.015,-1.0141,-1.0185,-1.0144,-1.0148,-1.0142,-1.014,-1.0143,-1.0194,-1.0195,-1.0196,-1.0197,0,-1.002,-1.0014,-1.0034,-1.0054,-1.0071,-1.0085,-1.0098,-1.0112,-1.0096,-1.0115,-1.0141,-1.0156,-1.0184,-1.0209,-1.0227,-1.0231,-1.0212,-1.021,-1.022,-1.0225,-1.0228,-1.0227,-1.0093,-1.0207,-1.0206,-1.0205,-1.0205,-1.0204,-1.0099,-1.0125,-1.0132,-1.0156,-1.0163,-1.0175,-1.0198,-1.0195,-1.0217,-1.0239,-1.0228,-1.0258,-1.0267,-1.029,-1.0296,-1.032,-1.0303,-1.0317,-1.0321,-1.0325,-1.033,-1.0223,-1.0323,-1.0323,-1.0323,-1.0323,-1.0322,0,-1.0206,-1.0209,-1.023,-1.0248,-1.0267,-1.0245,-1.0257,-1.0274,-1.0301,-1.0311,-1.0329,-1.0359,-1.0382,-1.0381,-1.0402,-1.0421,-1.0412,-1.0427,-1.0426,-1.0427,-1.0344,-1.0334,-1.0434,-1.0434,-1.0433,-1.0433,-1.0433,-1.0433,-1.0263,-1.0305,-1.0299,-1.0343,-1.0346,-1.0375,-1.0384,-1.0394,-1.0401,-1.0435,-1.0454,-1.0453,-1.0458,-1.0479,-1.0499,-1.0498,-1.0507,-1.0525,-1.0521,-1.0444,-1.0433,-1.0422,-1.0412,-1.0527,-1.0527,-1.0601,-1.0602,-1.0603]},{"header":{"parameterUnit":"m.s-1","parameterCategory":1,"la1":30.2991,"la2":30.254,"lo1":-89.0895,"lo2":-89.0444,"dy":0.0017,"dx":0.0017,"nx":28,"ny":28,"refTime":"2024-12-31T09:00:00:Z","depth":0,"parameterNumber":3,"parameterNumberName":"V-component_of_WINDS"},"data":[0,0,0,0,0,0,0,0,0,0,0,0,0,0,0,0,0,0,0,0,0,0,0,0,0,0,0,0,0,0,0,0,0,0,0,0,0,0,0,0,0,0,0,0,0,0,0,0,0,0,0,0,0,0,0,0,0,0,-3.9877,-3.9878,0,-3.9991,-3.9992,-3.9994,-3.9954,-3.9951,-3.9948,-3.9946,-4.006,-4.0065,-4.007,0,0,0,0,0,0,0,0,0,0,0,0,0,-3.9622,-3.9627,-3.9877,-3.9879,-3.988,-3.9991,-3.9992,-3.9994,-3.9954,-3.9951,-3.9948,-3.9945,-4.0058,-4.0064,-4.0071,0,0,0,0,0,0,0,0,0,0,0,0,0,-3.9734,-3.9628,-3.9877,-3.9873,-3.9874,-3.9991,-3.9992,-3.9994,-3.9955,-3.9951,-3.9947,-3.9943,-4.0056,-4.0064,-4.0072,-4.0197,0,0,-4.0096,-4.01,0,0,0,0,0,0,0,0,-3.9727,-3.9743,-3.9873,-3.9874,-3.9875,-3.9954,-3.9944,-4.0062,-3.9956,-3.9924,-3.9946,-3.9942,-4.0027,-4.0038,-4.0067,-4.0202,-4.0207,-4.0097,-4.0102,-4.0105,-4.0107,0,0,0,0,0,0,0,-3.972,-3.9738,-3.9922,-3.9874,-3.9876,-3.9865,-3.9877,-3.9966,-3.9995,-3.9926,-3.9924,-3.9938,-4.0027,-4.0059,-4.0069,-4.0209,-4.0097,-4.0104,-4.0109,-4.0112,-4.0451,-4.0455,0,0,0,0,0,0,-3.9712,-3.9732,-3.9918,-3.9925,-3.9791,-3.9873,-3.9886,-3.9933,-3.9994,-4.0,-3.9941,-3.9936,-4.0048,-4.006,-4.0073,-4.0224,-4.0105,-4.0113,-4.0117,-4.0447,-4.0452,-4.0457,0,0,0,0,0,0,-3.9706,-3.9729,-3.9914,-3.9828,-3.9851,-3.9881,-3.9934,-3.9937,-3.9969,-4.0006,-4.001,-3.9969,-4.0045,-4.0062,-4.0167,-4.0227,-4.0116,-4.0124,-4.0442,-4.0449,-4.0455,-4.0526,0,0,0,0,0,0,-3.9699,-3.9727,-3.9776,-3.9829,-3.9856,-4.0007,-3.9938,-3.9942,-3.9983,-3.9977,-4.0033,-4.0038,-4.0043,-4.0155,-4.0175,-4.0236,-4.013,-4.0437,-4.0445,-4.0453,-4.0518,-4.0534,-4.0547,0,0,0,0,0,-3.969,-3.9791,-3.9779,-3.9801,-3.9917,-4.001,-4.0025,-4.003,-3.9988,-4.0037,-4.006,-4.0036,-4.0217,-4.0166,-4.0188,-4.0253,-4.0433,-4.0443,-4.0452,-4.0512,-4.0531,-4.0547,0,0,0,0,0,0,-3.9743,-3.9798,-3.9785,-3.9906,-3.9954,-4.0003,-4.0065,-4.005,-4.0109,-4.0101,-4.0103,-4.0116,-4.0224,-4.0249,-4.019,-4.0377,-4.0319,-4.0333,-4.0357,-4.0375,-4.0389,-4.0381,-4.0137,0,0,0,0,0,-3.9769,-3.9841,-3.9884,-3.9987,-4.0012,-4.0034,-4.0075,-4.0075,-4.0124,-4.0143,-4.0174,-4.0222,-4.0289,-4.0334,-4.0398,-4.0522,-4.0533,-4.0577,-4.0592,-4.0603,-4.0615,-4.0682,-4.0702,-4.0488,-4.0488,-4.0488,0,0,-3.9823,-3.9862,-3.9907,-3.9999,-4.0036,-4.0109,-4.0052,-4.0131,-4.0185,-4.0155,-4.0256,-4.028,-4.0333,-4.0448,-4.05,-4.0472,-4.0677,-4.0615,-4.0624,-4.063,-4.0694,-4.0714,-4.0732,-4.0494,-4.0493,-4.0492,0,0,-3.9958,-3.9996,-4.0085,-4.0123,-4.018,-4.0194,-4.0216,-4.0268,-4.0283,-4.0385,-4.0363,-4.0426,-4.0543,-4.0581,-4.0616,-4.0766,-4.0746,-4.0787,-4.0862,-4.0927,-4.0944,-4.0959,-4.1012,-4.1031,-4.0799,-4.0799,-4.0799,0,-4.0018,-4.0129,-4.0133,-4.0215,-4.0255,-4.0232,-4.0322,-4.0358,-4.0433,-4.0461,-4.0429,-4.0574,-4.0608,-4.0731,-4.0768,-4.0797,-4.0821,-4.0781,-4.0941,-4.0957,-4.0971,-4.1021,-4.1041,-4.0804,-4.0803,-4.0803,-4.0802,0,-4.0199,-4.0275,-4.0341,-4.0414,-4.0462,-4.0548,-4.0564,-4.0611,-4.0607,-4.0624,-4.0727,-4.0767,-4.0839,-4.0868,-4.0864,-4.099,-4.0971,-4.094,-4.0882,-4.0995,-4.1043,-4.1062,-4.081,-4.0809,-4.0807,-4.0806,0,0,-4.0371,-4.0446,-4.0469,-4.0502,-4.0563,-4.0622,-4.0706,-4.0777,-4.0817,-4.0869,-4.0939,-4.1038,-4.101,-4.1049,-4.1049,-4.1106,-4.1222,-4.1068,-4.107,-4.1095,-4.1363,-4.1385,-4.1408,-4.1209,-4.1212,-4.1215,-4.1358,0,-4.0511,-4.066,-4.0666,-4.0801,-4.0871,-4.085,-4.0922,-4.0967,-4.0985,-4.1047,-4.1066,-4.1136,-4.1094,-4.1118,-4.1173,-4.1196,-4.1275,-4.1186,-4.1272,-4.1275,-4.126,-4.1433,-4.1457,-4.159,-4.1377,-4.138,-4.1382,0,-4.0695,-4.0753,-4.0896,-4.0946,-4.0976,-4.1042,-4.1107,-4.1166,-4.1216,-4.1225,-4.1269,-4.1261,-4.1345,-4.1284,-4.14,-4.1339,-4.1374,-4.1391,-4.1396,-4.1404,-4.1336,-4.1445,-4.1632,-4.1652,-4.1411,-4.1409,-4.1407,0,-4.0805,-4.092,-4.102,-4.1049,-4.111,-4.1157,-4.1184,-4.123,-4.1272,-4.1329,-4.1356,-4.1421,-4.1457,-4.1507,-4.1515,-4.147,-4.1631,-4.1571,-4.164,-4.164,-4.1675,-4.1673,-4.1871,-4.1699,-4.1698,-4.1698,-4.1698,0,-4.0961,-4.1049,-4.1071,-4.1132,-4.1229,-4.1235,-4.133,-4.1354,-4.1395,-4.146,-4.1445,-4.1506,-4.1514,-4.1576,-4.1583,-4.1678,-4.1694,-4.1703,-4.1703,-4.1704,-4.1703,-4.1727,-4.1718,-4.1703,-4.1702,-4.1701,-4.17,0,-4.1102,-4.112,-4.1227,-4.1276,-4.1291,-4.136,-4.1402,-4.146,-4.1477,-4.1559,-4.1578,-4.1604,-4.1677,-4.169,-4.1776,-4.1781,-4.1893,-4.1885,-4.1877,-4.1876,-4.1944,-4.1937,-4.2164,-4.2194,-4.2003,-4.2005,-4.2006,0,-4.12,-4.1267,-4.1324,-4.1367,-4.1397,-4.1466,-4.1509,-4.1516,-4.1561,-4.1623,-4.1673,-4.1745,-4.1802,-4.1919,-4.1945,-4.201,-4.2002,-4.2078,-4.2012,-4.201,-4.2003,-4.1999,-4.2005,-4.209,-4.2092,-4.2094,-4.2095,0,-4.1372,-4.1378,-4.1441,-4.1508,-4.156,-4.1612,-4.1662,-4.1697,-4.1711,-4.1762,-4.1837,-4.1882,-4.197,-4.204,-4.2105,-4.2132,-4.2116,-4.2116,-4.2135,-4.2136,-4.2128,-4.2133,-4.1911,-4.211,-4.2109,-4.2108,-4.2107,-4.2106,-4.1494,-4.1553,-4.1602,-4.1673,-4.1711,-4.1758,-4.1815,-4.1839,-4.1902,-4.1974,-4.1974,-4.2056,-4.2103,-4.2188,-4.2219,-4.2282,-4.2258,-4.2286,-4.2294,-4.23,-4.2307,-4.2119,-4.2294,-4.2294,-4.2293,-4.2293,-4.2293,0,-4.1665,-4.1696,-4.1761,-4.1831,-4.1887,-4.1868,-4.1922,-4.1969,-4.2041,-4.2087,-4.2144,-4.2229,-4.2298,-4.2329,-4.2396,-4.244,-4.2434,-4.2457,-4.2454,-4.246,-4.2324,-4.2301,-4.2461,-4.2461,-4.2461,-4.2461,-4.2461,-4.2461,-4.1761,-4.1859,-4.187,-4.1986,-4.2016,-4.2097,-4.2129,-4.2171,-4.2208,-4.2304,-4.2361,-4.2381,-4.2421,-4.249,-4.2552,-4.2559,-4.2584,-4.2611,-4.2614,-4.2487,-4.247,-4.2454,-4.2431,-4.2616,-4.2616,-4.2745,-4.2746,-4.2747]}]]